Time,TemperatureF,DewpointF,PressureIn,WindDirection,WindDirectionDegrees,WindSpeedMPH,WindSpeedGustMPH,Humidity,HourlyPrecipIn,Conditions,Clouds,dailyrainin,SoftwareType,DateUTC
2013-05-02 00:00:00,44.5,36.7,30.43,ESE,105,0.0,0.0,74,0.00,CLR,,0.00,WeatherDisplay:10.37,2013-05-02 04:00:00,
2013-05-02 00:05:00,44.2,36.5,30.43,ESE,105,0.0,0.0,74,0.00,CLR,,0.00,WeatherDisplay:10.37,2013-05-02 04:05:00,
2013-05-02 00:10:00,44.0,36.9,30.43,ESE,105,0.0,0.0,76,0.00,CLR,,0.00,WeatherDisplay:10.37,2013-05-02 04:10:00,
2013-05-02 00:15:00,43.8,36.7,30.43,ESE,105,0.0,0.0,76,0.00,CLR,,0.00,WeatherDisplay:10.37,2013-05-02 04:15:00,
2013-05-02 00:20:00,43.7,36.6,30.43,ESE,105,0.0,0.0,76,0.00,CLR,,0.00,WeatherDisplay:10.37,2013-05-02 04:20:00,
2013-05-02 00:25:00,43.5,37.1,30.43,ESE,105,0.0,0.0,78,0.00,CLR,,0.00,WeatherDisplay:10.37,2013-05-02 04:25:00,
2013-05-02 00:30:00,43.3,36.6,30.43,ESE,105,0.0,0.0,77,0.00,CLR,,0.00,WeatherDisplay:10.37,2013-05-02 04:30:00,
2013-05-02 00:35:00,43.1,36.4,30.43,ESE,105,0.0,0.0,77,0.00,CLR,,0.00,WeatherDisplay:10.37,2013-05-02 04:35:00,
2013-05-02 00:40:00,42.9,36.8,30.43,ESE,105,0.0,0.0,79,0.00,CLR,,0.00,WeatherDisplay:10.37,2013-05-02 04:40:00,
2013-05-02 00:45:00,42.8,36.7,30.43,ESE,105,0.0,0.0,79,0.00,CLR,,0.00,WeatherDisplay:10.37,2013-05-02 04:45:00,
2013-05-02 00:50:00,42.6,36.5,30.43,ESE,105,0.0,0.0,79,0.00,CLR,,0.00,WeatherDisplay:10.37,2013-05-02 04:50:00,
2013-05-02 00:55:00,42.5,36.4,30.43,ESE,105,0.0,0.0,79,0.00,CLR,,0.00,WeatherDisplay:10.37,2013-05-02 04:55:00,
2013-05-02 01:00:00,42.3,36.3,30.43,ESE,105,0.0,0.0,79,0.00,CLR,,0.00,WeatherDisplay:10.37,2013-05-02 05:00:00,
2013-05-02 01:05:00,42.2,36.5,30.42,ESE,105,0.0,0.0,80,0.00,CLR,,0.00,WeatherDisplay:10.37,2013-05-02 05:05:00,
2013-05-02 01:10:00,42.0,36.6,30.42,ESE,105,0.0,0.0,81,0.00,CLR,,0.00,WeatherDisplay:10.37,2013-05-02 05:10:00,
2013-05-02 01:15:00,42.0,36.9,30.42,ESE,105,0.0,0.0,82,0.00,CLR,,0.00,WeatherDisplay:10.37,2013-05-02 05:15:00,
2013-05-02 01:20:00,41.9,36.8,30.42,ESE,105,0.0,0.0,82,0.00,CLR,,0.00,WeatherDisplay:10.37,2013-05-02 05:20:00,
2013-05-02 01:25:00,41.8,36.3,30.42,ESE,105,0.0,0.0,81,0.00,CLR,,0.00,WeatherDisplay:10.37,2013-05-02 05:25:00,
2013-05-02 01:30:00,41.6,36.5,30.42,ESE,105,0.0,0.0,82,0.00,CLR,,0.00,WeatherDisplay:10.37,2013-05-02 05:30:00,
2013-05-02 01:35:00,41.5,36.7,30.42,ESE,105,0.0,0.0,83,0.00,CLR,,0.00,WeatherDisplay:10.37,2013-05-02 05:35:00,
2013-05-02 01:40:00,41.4,36.6,30.42,ESE,105,0.0,0.0,83,0.00,CLR,,0.00,WeatherDisplay:10.37,2013-05-02 05:40:00,
2013-05-02 01:45:00,41.3,36.5,30.42,ESE,105,0.0,0.0,83,0.00,CLR,,0.00,WeatherDisplay:10.37,2013-05-02 05:45:00,
2013-05-02 01:50:00,41.1,36.3,30.42,ESE,105,0.0,0.0,83,0.00,CLR,,0.00,WeatherDisplay:10.37,2013-05-02 05:50:00,
2013-05-02 01:55:00,41.0,36.5,30.42,ESE,105,0.0,0.0,84,0.00,CLR,,0.00,WeatherDisplay:10.37,2013-05-02 05:55:00,
2013-05-02 02:00:00,40.9,36.7,30.42,ESE,105,0.0,0.0,85,0.00,CLR,,0.00,WeatherDisplay:10.37,2013-05-02 06:00:00,
2013-05-02 02:05:00,40.7,36.3,30.42,ESE,105,0.0,0.0,84,0.00,CLR,,0.00,WeatherDisplay:10.37,2013-05-02 06:05:00,
2013-05-02 02:10:00,40.6,36.4,30.42,ESE,105,0.0,0.0,85,0.00,CLR,,0.00,WeatherDisplay:10.37,2013-05-02 06:10:00,
2013-05-02 02:15:00,40.5,36.3,30.42,ESE,105,0.0,0.0,85,0.00,CLR,,0.00,WeatherDisplay:10.37,2013-05-02 06:15:00,
2013-05-02 02:20:00,40.4,36.3,30.41,ESE,105,0.0,0.0,85,0.00,CLR,,0.00,WeatherDisplay:10.37,2013-05-02 06:20:00,
2013-05-02 02:25:00,40.4,36.2,30.41,ESE,105,0.0,0.0,85,0.00,CLR,,0.00,WeatherDisplay:10.37,2013-05-02 06:25:00,
2013-05-02 02:30:00,40.3,36.4,30.41,ESE,105,0.0,0.0,86,0.00,CLR,,0.00,WeatherDisplay:10.37,2013-05-02 06:30:00,
2013-05-02 02:35:00,40.2,36.3,30.41,ESE,105,0.0,0.0,86,0.00,CLR,,0.00,WeatherDisplay:10.37,2013-05-02 06:35:00,
2013-05-02 02:40:00,40.1,36.2,30.41,ESE,105,0.0,0.0,86,0.00,CLR,,0.00,WeatherDisplay:10.37,2013-05-02 06:40:00,
2013-05-02 02:45:00,40.0,36.2,30.41,ESE,105,0.0,0.0,86,0.00,CLR,,0.00,WeatherDisplay:10.37,2013-05-02 06:45:00,
2013-05-02 02:50:00,39.8,36.0,30.41,ESE,105,0.0,0.0,86,0.00,CLR,,0.00,WeatherDisplay:10.37,2013-05-02 06:50:00,
2013-05-02 02:55:00,39.8,36.2,30.41,ESE,105,0.0,0.0,87,0.00,CLR,,0.00,WeatherDisplay:10.37,2013-05-02 06:55:00,
2013-05-02 03:00:00,39.7,36.1,30.41,ESE,105,0.0,0.0,87,0.00,CLR,,0.00,WeatherDisplay:10.37,2013-05-02 07:00:00,
2013-05-02 03:05:00,39.6,36.0,30.41,ESE,105,0.0,0.0,87,0.00,CLR,,0.00,WeatherDisplay:10.37,2013-05-02 07:05:00,
2013-05-02 03:10:00,39.5,36.0,30.41,ESE,105,0.0,0.0,87,0.00,CLR,,0.00,WeatherDisplay:10.37,2013-05-02 07:10:00,
2013-05-02 03:15:00,39.4,36.2,30.41,ESE,105,0.0,0.0,88,0.00,CLR,,0.00,WeatherDisplay:10.37,2013-05-02 07:15:00,
2013-05-02 03:20:00,39.4,36.1,30.41,ESE,105,0.0,0.0,88,0.00,CLR,,0.00,WeatherDisplay:10.37,2013-05-02 07:20:00,
2013-05-02 03:25:00,39.3,36.0,30.40,ESE,105,0.0,0.0,88,0.00,CLR,,0.00,WeatherDisplay:10.37,2013-05-02 07:25:00,
2013-05-02 03:30:00,39.2,35.9,30.40,ESE,105,0.0,0.0,88,0.00,CLR,,0.00,WeatherDisplay:10.37,2013-05-02 07:30:00,
2013-05-02 03:35:00,39.1,35.8,30.40,ESE,105,0.0,0.0,88,0.00,CLR,,0.00,WeatherDisplay:10.37,2013-05-02 07:35:00,
2013-05-02 03:40:00,39.0,35.7,30.40,ESE,105,0.0,0.0,88,0.00,CLR,,0.00,WeatherDisplay:10.37,2013-05-02 07:40:00,
2013-05-02 03:45:00,38.9,35.6,30.40,ESE,105,0.0,0.0,88,0.00,CLR,,0.00,WeatherDisplay:10.37,2013-05-02 07:45:00,
2013-05-02 03:50:00,38.8,35.8,30.40,ESE,105,0.0,0.0,89,0.00,CLR,,0.00,WeatherDisplay:10.37,2013-05-02 07:50:00,
2013-05-02 03:55:00,38.8,35.8,30.40,ESE,105,0.0,0.0,89,0.00,CLR,,0.00,WeatherDisplay:10.37,2013-05-02 07:55:00,
2013-05-02 04:00:00,38.7,35.7,30.40,ESE,105,0.0,0.0,89,0.00,CLR,,0.00,WeatherDisplay:10.37,2013-05-02 08:00:00,
2013-05-02 04:05:00,38.6,35.6,30.40,ESE,105,0.0,0.0,89,0.00,CLR,,0.00,WeatherDisplay:10.37,2013-05-02 08:05:00,
2013-05-02 04:10:00,38.6,35.6,30.40,ESE,105,0.0,0.0,89,0.00,CLR,,0.00,WeatherDisplay:10.37,2013-05-02 08:10:00,
2013-05-02 04:15:00,38.4,35.5,30.41,ESE,105,0.0,0.0,89,0.00,CLR,,0.00,WeatherDisplay:10.37,2013-05-02 08:15:00,
2013-05-02 04:20:00,38.3,35.4,30.41,ESE,105,0.0,0.0,89,0.00,CLR,,0.00,WeatherDisplay:10.37,2013-05-02 08:20:00,
2013-05-02 04:25:00,38.3,35.6,30.40,ESE,105,0.0,0.0,90,0.00,CLR,,0.00,WeatherDisplay:10.37,2013-05-02 08:25:00,
2013-05-02 04:30:00,38.2,35.5,30.40,ESE,105,0.0,0.0,90,0.00,CLR,,0.00,WeatherDisplay:10.37,2013-05-02 08:30:00,
2013-05-02 04:35:00,38.1,35.7,30.40,ESE,105,0.0,0.0,91,0.00,CLR,,0.00,WeatherDisplay:10.37,2013-05-02 08:35:00,
2013-05-02 04:40:00,38.1,35.7,30.40,ESE,105,0.0,0.0,91,0.00,CLR,,0.00,WeatherDisplay:10.37,2013-05-02 08:40:00,
2013-05-02 04:45:00,38.0,35.6,30.40,ESE,105,0.0,0.0,91,0.00,CLR,,0.00,WeatherDisplay:10.37,2013-05-02 08:45:00,
2013-05-02 04:50:00,38.0,35.6,30.40,ESE,105,0.0,0.0,91,0.00,CLR,,0.00,WeatherDisplay:10.37,2013-05-02 08:50:00,
2013-05-02 04:55:00,37.9,35.5,30.40,ESE,105,0.0,0.0,91,0.00,CLR,,0.00,WeatherDisplay:10.37,2013-05-02 08:55:00,
2013-05-02 05:00:00,37.8,35.4,30.41,ESE,105,0.0,0.0,91,0.00,CLR,,0.00,WeatherDisplay:10.37,2013-05-02 09:00:00,
2013-05-02 05:05:00,37.8,35.4,30.41,ESE,105,0.0,0.0,91,0.00,CLR,,0.00,WeatherDisplay:10.37,2013-05-02 09:05:00,
2013-05-02 05:10:00,37.7,35.3,30.40,ESE,105,0.0,0.0,91,0.00,CLR,,0.00,WeatherDisplay:10.37,2013-05-02 09:10:00,
2013-05-02 05:15:00,37.6,35.2,30.41,ESE,105,0.0,0.0,91,0.00,CLR,,0.00,WeatherDisplay:10.37,2013-05-02 09:15:00,
2013-05-02 05:20:00,37.5,35.1,30.41,ESE,105,0.0,0.0,91,0.00,CLR,,0.00,WeatherDisplay:10.37,2013-05-02 09:20:00,
2013-05-02 05:25:00,37.5,35.1,30.41,ESE,105,0.0,0.0,91,0.00,CLR,,0.00,WeatherDisplay:10.37,2013-05-02 09:25:00,
2013-05-02 05:30:00,37.4,35.0,30.41,ESE,105,0.0,0.0,91,0.00,CLR,,0.00,WeatherDisplay:10.37,2013-05-02 09:30:00,
2013-05-02 05:35:00,37.3,34.9,30.41,ESE,105,0.0,0.0,91,0.00,CLR,,0.00,WeatherDisplay:10.37,2013-05-02 09:35:00,
2013-05-02 05:40:00,37.2,34.8,30.41,ESE,105,0.0,0.0,91,0.00,CLR,,0.00,WeatherDisplay:10.37,2013-05-02 09:40:00,
2013-05-02 05:45:00,37.1,34.7,30.41,ESE,105,0.0,0.0,91,0.00,CLR,,0.00,WeatherDisplay:10.37,2013-05-02 09:45:00,
2013-05-02 05:50:00,37.1,34.7,30.41,ESE,105,0.0,0.0,91,0.00,CLR,,0.00,WeatherDisplay:10.37,2013-05-02 09:50:00,
2013-05-02 05:55:00,37.1,35.0,30.41,ESE,105,0.0,0.0,92,0.00,CLR,,0.00,WeatherDisplay:10.37,2013-05-02 09:55:00,
2013-05-02 06:00:00,37.1,35.0,30.41,ESE,105,0.0,0.0,92,0.00,CLR,,0.00,WeatherDisplay:10.37,2013-05-02 10:00:00,
2013-05-02 06:05:00,37.1,35.0,30.41,ESE,105,0.0,0.0,92,0.00,CLR,,0.00,WeatherDisplay:10.37,2013-05-02 10:05:00,
2013-05-02 06:10:00,37.1,35.0,30.41,ESE,105,0.0,0.0,92,0.00,CLR,,0.00,WeatherDisplay:10.37,2013-05-02 10:10:00,
2013-05-02 06:15:00,37.1,35.0,30.41,ESE,105,0.0,0.0,92,0.00,CLR,,0.00,WeatherDisplay:10.37,2013-05-02 10:15:00,
2013-05-02 06:20:00,37.2,35.1,30.41,ESE,105,0.0,0.0,92,0.00,CLR,,0.00,WeatherDisplay:10.37,2013-05-02 10:20:00,
2013-05-02 06:25:00,37.2,35.1,30.41,ESE,105,0.0,0.0,92,0.00,CLR,,0.00,WeatherDisplay:10.37,2013-05-02 10:25:00,
2013-05-02 06:30:00,37.3,35.2,30.41,ESE,105,0.0,0.0,92,0.00,CLR,,0.00,WeatherDisplay:10.37,2013-05-02 10:30:00,
2013-05-02 06:35:00,37.3,35.5,30.41,ESE,105,0.0,0.0,93,0.00,CLR,,0.00,WeatherDisplay:10.37,2013-05-02 10:35:00,
2013-05-02 06:40:00,37.4,35.6,30.41,ESE,105,0.0,0.0,93,0.00,CLR,,0.00,WeatherDisplay:10.37,2013-05-02 10:40:00,
2013-05-02 06:45:00,37.6,35.8,30.41,ESE,105,0.0,0.0,93,0.00,CLR,,0.00,WeatherDisplay:10.37,2013-05-02 10:45:00,
2013-05-02 06:50:00,37.8,36.0,30.41,ESE,105,0.0,0.0,93,0.00,CLR,,0.00,WeatherDisplay:10.37,2013-05-02 10:50:00,
2013-05-02 06:55:00,38.0,36.2,30.42,ESE,105,0.0,0.0,93,0.00,CLR,,0.00,WeatherDisplay:10.37,2013-05-02 10:55:00,
2013-05-02 07:00:00,38.4,36.6,30.42,ESE,105,0.0,0.0,93,0.00,CLR,,0.00,WeatherDisplay:10.37,2013-05-02 11:00:00,
2013-05-02 07:05:00,38.8,36.9,30.41,ESE,105,0.0,0.0,93,0.00,CLR,,0.00,WeatherDisplay:10.37,2013-05-02 11:05:00,
2013-05-02 07:10:00,39.1,37.3,30.42,ESE,105,0.0,0.0,93,0.00,CLR,,0.00,WeatherDisplay:10.37,2013-05-02 11:10:00,
2013-05-02 07:15:00,39.6,37.5,30.42,ESE,105,0.0,0.0,92,0.00,CLR,,0.00,WeatherDisplay:10.37,2013-05-02 11:15:00,
2013-05-02 07:20:00,40.1,38.0,30.42,ESE,105,0.0,0.0,92,0.00,CLR,,0.00,WeatherDisplay:10.37,2013-05-02 11:20:00,
2013-05-02 07:25:00,40.7,38.6,30.42,ESE,105,0.0,0.0,92,0.00,CLR,,0.00,WeatherDisplay:10.37,2013-05-02 11:25:00,
2013-05-02 07:30:00,41.3,38.8,30.42,ESE,105,0.0,0.0,91,0.00,CLR,,0.00,WeatherDisplay:10.37,2013-05-02 11:30:00,
2013-05-02 07:35:00,41.8,39.7,30.42,ESE,105,0.0,0.0,92,0.00,CLR,,0.00,WeatherDisplay:10.37,2013-05-02 11:35:00,
2013-05-02 07:40:00,42.6,40.1,30.42,ESE,105,0.0,0.0,91,0.00,CLR,,0.00,WeatherDisplay:10.37,2013-05-02 11:40:00,
2013-05-02 07:45:00,43.3,40.6,30.43,ESE,105,0.0,0.0,90,0.00,CLR,,0.00,WeatherDisplay:10.37,2013-05-02 11:45:00,
2013-05-02 07:50:00,44.2,41.2,30.43,ESE,105,0.0,0.0,89,0.00,CLR,,0.00,WeatherDisplay:10.37,2013-05-02 11:50:00,
2013-05-02 07:55:00,45.0,41.4,30.43,ESE,105,0.0,0.0,87,0.00,CLR,,0.00,WeatherDisplay:10.37,2013-05-02 11:55:00,
2013-05-02 08:00:00,46.2,41.6,30.42,ESE,105,0.0,0.0,84,0.00,CLR,,0.00,WeatherDisplay:10.37,2013-05-02 12:00:00,
2013-05-02 08:05:00,47.7,41.8,30.42,ESE,105,0.0,0.0,80,0.00,CLR,,0.00,WeatherDisplay:10.37,2013-05-02 12:05:00,
2013-05-02 08:10:00,49.3,42.8,30.42,ESE,105,0.0,0.0,78,0.00,CLR,,0.00,WeatherDisplay:10.37,2013-05-02 12:10:00,
2013-05-02 08:15:00,50.5,43.2,30.42,ESE,105,0.0,0.0,76,0.00,CLR,,0.00,WeatherDisplay:10.37,2013-05-02 12:15:00,
2013-05-02 08:20:00,51.6,42.9,30.42,ESE,105,0.0,0.0,72,0.00,CLR,,0.00,WeatherDisplay:10.37,2013-05-02 12:20:00,
2013-05-02 08:25:00,52.7,43.2,30.42,East,96,0.0,0.0,70,0.00,CLR,,0.00,WeatherDisplay:10.37,2013-05-02 12:25:00,
2013-05-02 08:30:00,53.7,43.7,30.42,East,86,0.0,2.0,69,0.00,CLR,,0.00,WeatherDisplay:10.37,2013-05-02 12:30:00,
2013-05-02 08:35:00,54.6,43.9,30.42,East,89,0.0,1.0,67,0.00,CLR,,0.00,WeatherDisplay:10.37,2013-05-02 12:35:00,
2013-05-02 08:40:00,55.4,43.8,30.42,ESE,105,0.0,1.0,65,0.00,CLR,,0.00,WeatherDisplay:10.37,2013-05-02 12:40:00,
2013-05-02 08:45:00,56.0,44.0,30.42,ESE,103,0.0,2.0,64,0.00,CLR,,0.00,WeatherDisplay:10.37,2013-05-02 12:45:00,
2013-05-02 08:50:00,56.8,44.4,30.42,East,88,1.0,3.0,63,0.00,CLR,,0.00,WeatherDisplay:10.37,2013-05-02 12:50:00,
2013-05-02 08:55:00,57.7,44.7,30.42,ENE,69,0.0,3.0,62,0.00,CLR,,0.00,WeatherDisplay:10.37,2013-05-02 12:55:00,
2013-05-02 09:00:00,58.6,45.2,30.42,ENE,63,0.0,0.0,61,0.00,CLR,,0.00,WeatherDisplay:10.37,2013-05-02 13:00:00,
2013-05-02 09:05:00,59.3,45.0,30.42,ENE,74,0.0,2.0,59,0.00,CLR,,0.00,WeatherDisplay:10.37,2013-05-02 13:05:00,
2013-05-02 09:10:00,60.0,44.7,30.42,South,187,0.0,3.0,57,0.00,CLR,,0.00,WeatherDisplay:10.37,2013-05-02 13:10:00,
2013-05-02 09:15:00,60.5,44.3,30.42,SSW,212,0.0,2.0,55,0.00,CLR,,0.00,WeatherDisplay:10.37,2013-05-02 13:15:00,
2013-05-02 09:20:00,61.2,44.4,30.42,SE,141,1.0,2.0,54,0.00,CLR,,0.00,WeatherDisplay:10.37,2013-05-02 13:20:00,
2013-05-02 09:25:00,61.7,44.8,30.42,ENE,58,0.0,3.0,54,0.00,CLR,,0.00,WeatherDisplay:10.37,2013-05-02 13:25:00,
2013-05-02 09:30:00,62.2,45.8,30.41,WSW,251,1.0,3.0,55,0.00,CLR,,0.00,WeatherDisplay:10.37,2013-05-02 13:30:00,
2013-05-02 09:35:00,62.5,45.1,30.41,WSW,251,1.0,3.0,53,0.00,CLR,,0.00,WeatherDisplay:10.37,2013-05-02 13:35:00,
2013-05-02 09:40:00,62.9,44.5,30.41,WSW,250,1.0,3.0,51,0.00,CLR,,0.00,WeatherDisplay:10.37,2013-05-02 13:40:00,
2013-05-02 09:45:00,63.5,45.6,30.41,North,6,0.0,2.0,52,0.00,CLR,,0.00,WeatherDisplay:10.37,2013-05-02 13:45:00,
2013-05-02 09:50:00,64.1,45.6,30.41,NW,311,0.0,1.0,51,0.00,CLR,,0.00,WeatherDisplay:10.37,2013-05-02 13:50:00,
2013-05-02 09:55:00,64.6,43.9,30.41,NNW,336,0.0,2.0,47,0.00,CLR,,0.00,WeatherDisplay:10.37,2013-05-02 13:55:00,
2013-05-02 10:00:00,65.0,45.4,30.41,WNW,287,2.0,4.0,49,0.00,CLR,,0.00,WeatherDisplay:10.37,2013-05-02 14:00:00,
2013-05-02 10:05:00,65.5,45.3,30.41,WNW,302,1.0,3.0,48,0.00,CLR,,0.00,WeatherDisplay:10.37,2013-05-02 14:05:00,
2013-05-02 10:10:00,65.8,44.4,30.40,WSW,241,1.0,3.0,46,0.00,CLR,,0.00,WeatherDisplay:10.37,2013-05-02 14:10:00,
2013-05-02 10:15:00,66.2,44.2,30.41,SW,230,0.0,3.0,45,0.00,CLR,,0.00,WeatherDisplay:10.37,2013-05-02 14:15:00,
2013-05-02 10:20:00,66.9,44.9,30.40,NW,307,0.0,1.0,45,0.00,CLR,,0.00,WeatherDisplay:10.37,2013-05-02 14:20:00,
2013-05-02 10:25:00,67.5,45.4,30.40,WNW,291,1.0,3.0,45,0.00,CLR,,0.00,WeatherDisplay:10.37,2013-05-02 14:25:00,
2013-05-02 10:30:00,67.7,41.8,30.40,SSW,204,1.0,3.0,39,0.00,CLR,,0.00,WeatherDisplay:10.37,2013-05-02 14:30:00,
2013-05-02 10:35:00,68.0,45.2,30.40,SSW,209,1.0,4.0,44,0.00,CLR,,0.00,WeatherDisplay:10.37,2013-05-02 14:35:00,
2013-05-02 10:40:00,68.4,43.7,30.40,West,277,2.0,4.0,41,0.00,CLR,,0.00,WeatherDisplay:10.37,2013-05-02 14:40:00,
2013-05-02 10:45:00,68.8,42.2,30.40,West,267,1.0,3.0,38,0.00,CLR,,0.00,WeatherDisplay:10.37,2013-05-02 14:45:00,
2013-05-02 10:50:00,69.3,42.6,30.39,South,175,1.0,4.0,38,0.00,CLR,,0.00,WeatherDisplay:10.37,2013-05-02 14:50:00,
2013-05-02 11:00:00,70.0,41.1,30.39,SSW,194,2.0,3.0,35,0.00,CLR,,0.00,WeatherDisplay:10.37,2013-05-02 15:00:00,
2013-05-02 11:05:00,70.4,38.3,30.39,SSE,161,1.0,3.0,31,0.00,CLR,,0.00,WeatherDisplay:10.37,2013-05-02 15:05:00,
2013-05-02 11:10:00,70.8,37.0,30.39,ENE,64,2.0,4.0,29,0.00,CLR,,0.00,WeatherDisplay:10.37,2013-05-02 15:10:00,
2013-05-02 11:15:00,71.2,39.0,30.38,NNE,33,1.0,3.0,31,0.00,CLR,,0.00,WeatherDisplay:10.37,2013-05-02 15:15:00,
2013-05-02 11:20:00,71.8,37.9,30.38,NNW,336,0.0,2.0,29,0.00,CLR,,0.00,WeatherDisplay:10.37,2013-05-02 15:20:00,
2013-05-02 11:25:00,72.5,37.5,30.38,WSW,241,1.0,2.0,28,0.00,CLR,,0.00,WeatherDisplay:10.37,2013-05-02 15:25:00,
2013-05-02 11:30:00,72.6,37.6,30.38,NNE,17,2.0,4.0,28,0.00,CLR,,0.00,WeatherDisplay:10.37,2013-05-02 15:30:00,
2013-05-02 11:35:00,72.5,35.6,30.38,NE,42,2.0,5.0,26,0.00,CLR,,0.00,WeatherDisplay:10.37,2013-05-02 15:35:00,
2013-05-02 11:40:00,72.5,36.6,30.37,ENE,70,1.0,4.0,27,0.00,CLR,,0.00,WeatherDisplay:10.37,2013-05-02 15:40:00,
2013-05-02 11:45:00,72.8,38.7,30.37,East,98,1.0,2.0,29,0.00,CLR,,0.00,WeatherDisplay:10.37,2013-05-02 15:45:00,
2013-05-02 11:50:00,73.1,37.1,30.37,NNW,334,0.0,5.0,27,0.00,CLR,,0.00,WeatherDisplay:10.37,2013-05-02 15:50:00,
2013-05-02 11:55:00,73.1,38.0,30.37,WSW,249,2.0,5.0,28,0.00,CLR,,0.00,WeatherDisplay:10.37,2013-05-02 15:55:00,
2013-05-02 12:00:00,73.2,38.1,30.37,SW,220,5.0,6.0,28,0.00,CLR,,0.00,WeatherDisplay:10.37,2013-05-02 16:00:00,
2013-05-02 12:05:00,73.1,36.2,30.36,SSW,210,2.0,5.0,26,0.00,CLR,,0.00,WeatherDisplay:10.37,2013-05-02 16:05:00,
2013-05-02 12:10:00,73.4,39.2,30.36,SW,223,2.0,5.0,29,0.00,CLR,,0.00,WeatherDisplay:10.37,2013-05-02 16:10:00,
2013-05-02 12:15:00,73.9,38.7,30.36,West,279,1.0,3.0,28,0.00,CLR,,0.00,WeatherDisplay:10.37,2013-05-02 16:15:00,
2013-05-02 12:20:00,74.0,36.9,30.36,West,279,1.0,3.0,26,0.00,CLR,,0.00,WeatherDisplay:10.37,2013-05-02 16:20:00,
2013-05-02 12:25:00,74.0,35.9,30.36,North,353,2.0,4.0,25,0.00,CLR,,0.00,WeatherDisplay:10.37,2013-05-02 16:25:00,
2013-05-02 12:30:00,74.2,36.1,30.35,NE,52,2.0,8.0,25,0.00,CLR,,0.00,WeatherDisplay:10.37,2013-05-02 16:30:00,
2013-05-02 12:35:00,74.3,39.1,30.35,East,90,0.0,3.0,28,0.00,CLR,,0.00,WeatherDisplay:10.37,2013-05-02 16:35:00,
2013-05-02 12:40:00,74.6,36.4,30.35,NE,42,0.0,8.0,25,0.00,CLR,,0.00,WeatherDisplay:10.37,2013-05-02 16:40:00,
2013-05-02 12:45:00,74.4,39.2,30.35,NNE,31,0.0,3.0,28,0.00,CLR,,0.00,WeatherDisplay:10.37,2013-05-02 16:45:00,
2013-05-02 12:50:00,74.8,36.6,30.35,East,84,0.0,4.0,25,0.00,CLR,,0.00,WeatherDisplay:10.37,2013-05-02 16:50:00,
2013-05-02 12:55:00,75.0,37.8,30.34,ESE,122,1.0,2.0,26,0.00,CLR,,0.00,WeatherDisplay:10.37,2013-05-02 16:55:00,
2013-05-02 13:00:00,75.5,40.1,30.34,SW,235,1.0,2.0,28,0.00,CLR,,0.00,WeatherDisplay:10.37,2013-05-02 17:00:00,
2013-05-02 13:05:00,76.0,39.6,30.34,NE,46,2.0,5.0,27,0.00,CLR,,0.00,WeatherDisplay:10.37,2013-05-02 17:05:00,
2013-05-02 13:10:00,76.3,36.8,30.34,NE,52,3.0,6.0,24,0.00,CLR,,0.00,WeatherDisplay:10.37,2013-05-02 17:10:00,
2013-05-02 13:15:00,76.2,36.8,30.34,NE,47,0.0,4.0,24,0.00,CLR,,0.00,WeatherDisplay:10.37,2013-05-02 17:15:00,
2013-05-02 13:20:00,76.4,35.8,30.34,NNE,15,1.0,5.0,23,0.00,SCT,,0.00,WeatherDisplay:10.37,2013-05-02 17:20:00,
2013-05-02 13:25:00,76.5,38.0,30.34,NE,42,0.0,4.0,25,0.00,SCT,,0.00,WeatherDisplay:10.37,2013-05-02 17:25:00,
2013-05-02 13:30:00,77.0,38.5,30.34,North,4,0.0,4.0,25,0.00,SCT,,0.00,WeatherDisplay:10.37,2013-05-02 17:30:00,
2013-05-02 13:35:00,77.6,36.8,30.34,NE,39,2.0,5.0,23,0.00,SCT,,0.00,WeatherDisplay:10.37,2013-05-02 17:35:00,
2013-05-02 13:40:00,77.8,38.1,30.34,ENE,75,2.0,5.0,24,0.00,SCT,,0.00,WeatherDisplay:10.37,2013-05-02 17:40:00,
2013-05-02 13:45:00,77.6,37.9,30.34,ENE,66,0.0,3.0,24,0.00,SCT,,0.00,WeatherDisplay:10.37,2013-05-02 17:45:00,
2013-05-02 13:50:00,77.3,36.6,30.33,NE,40,0.0,2.0,23,0.00,SCT,,0.00,WeatherDisplay:10.37,2013-05-02 17:50:00,
2013-05-02 13:55:00,76.8,38.3,30.33,NE,34,0.0,2.0,25,0.00,SCT,,0.00,WeatherDisplay:10.37,2013-05-02 17:55:00,
2013-05-02 14:00:00,76.6,37.1,30.33,NE,44,0.0,3.0,24,0.00,SCT,,0.00,WeatherDisplay:10.37,2013-05-02 18:00:00,
2013-05-02 14:05:00,76.5,39.0,30.33,NNE,14,0.0,2.0,26,0.00,SCT,,0.00,WeatherDisplay:10.37,2013-05-02 18:05:00,
2013-05-02 14:10:00,76.4,40.9,30.33,NW,305,0.0,2.0,28,0.00,SCT,,0.00,WeatherDisplay:10.37,2013-05-02 18:10:00,
2013-05-02 14:15:00,76.7,39.2,30.33,ENE,61,2.0,5.0,26,0.00,SCT,,0.00,WeatherDisplay:10.37,2013-05-02 18:15:00,
2013-05-02 14:20:00,77.5,40.9,30.33,ENE,63,2.0,6.0,27,0.00,BKN,,0.00,WeatherDisplay:10.37,2013-05-02 18:20:00,
2013-05-02 14:25:00,78.0,39.3,30.33,NE,46,1.0,4.0,25,0.00,BKN,,0.00,WeatherDisplay:10.37,2013-05-02 18:25:00,
2013-05-02 14:30:00,78.4,39.7,30.33,South,179,2.0,8.0,25,0.00,BKN,,0.00,WeatherDisplay:10.37,2013-05-02 18:30:00,
2013-05-02 14:35:00,78.7,41.9,30.33,ESE,114,5.0,12.0,27,0.00,BKN,,0.00,WeatherDisplay:10.37,2013-05-02 18:35:00,
2013-05-02 14:40:00,78.1,42.3,30.34,ESE,106,3.0,12.0,28,0.00,BKN,,0.00,WeatherDisplay:10.37,2013-05-02 18:40:00,
2013-05-02 14:45:00,77.0,42.3,30.34,East,98,9.0,16.0,29,0.00,BKN,,0.00,WeatherDisplay:10.37,2013-05-02 18:45:00,
2013-05-02 14:50:00,75.3,42.6,30.34,ESE,112,5.0,12.0,31,0.00,BKN,,0.00,WeatherDisplay:10.37,2013-05-02 18:50:00,
2013-05-02 14:55:00,74.2,44.0,30.35,ESE,107,6.0,13.0,34,0.00,BKN,,0.00,WeatherDisplay:10.37,2013-05-02 18:55:00,
2013-05-02 15:00:00,72.7,44.2,30.35,East,80,7.0,16.0,36,0.00,BKN,,0.00,WeatherDisplay:10.37,2013-05-02 19:00:00,
2013-05-02 15:05:00,70.9,42.6,30.36,ENE,78,5.0,14.0,36,0.00,BKN,,0.00,WeatherDisplay:10.37,2013-05-02 19:05:00,
2013-05-02 15:10:00,69.3,41.9,30.36,ESE,108,5.0,13.0,37,0.00,BKN,,0.00,WeatherDisplay:10.37,2013-05-02 19:10:00,
2013-05-02 15:15:00,68.3,42.3,30.36,SE,130,3.0,17.0,39,0.00,BKN,,0.00,WeatherDisplay:10.37,2013-05-02 19:15:00,
2013-05-02 15:20:00,67.4,42.2,30.37,ESE,122,3.0,15.0,40,0.00,BKN,,0.00,WeatherDisplay:10.37,2013-05-02 19:20:00,
2013-05-02 15:25:00,66.5,42.7,30.37,East,100,8.0,16.0,42,0.00,BKN,,0.00,WeatherDisplay:10.37,2013-05-02 19:25:00,
2013-05-02 15:30:00,65.4,42.3,30.38,ENE,76,7.0,16.0,43,0.00,BKN,,0.00,WeatherDisplay:10.37,2013-05-02 19:30:00,
2013-05-02 15:35:00,64.3,42.5,30.38,East,81,2.0,10.0,45,0.00,BKN,,0.00,WeatherDisplay:10.37,2013-05-02 19:35:00,
2013-05-02 15:40:00,63.5,44.0,30.38,ESE,102,2.0,12.0,49,0.00,BKN,,0.00,WeatherDisplay:10.37,2013-05-02 19:40:00,
2013-05-02 15:45:00,63.1,43.6,30.38,ESE,116,5.0,12.0,49,0.00,BKN,,0.00,WeatherDisplay:10.37,2013-05-02 19:45:00,
2013-05-02 15:50:00,62.2,43.8,30.39,ESE,116,6.0,14.0,51,0.00,BKN,,0.00,WeatherDisplay:10.37,2013-05-02 19:50:00,
2013-05-02 15:55:00,61.2,43.9,30.38,East,91,5.0,18.0,53,0.00,BKN,,0.00,WeatherDisplay:10.37,2013-05-02 19:55:00,
2013-05-02 16:00:00,60.5,43.7,30.39,East,89,6.0,14.0,54,0.00,BKN,,0.00,WeatherDisplay:10.37,2013-05-02 20:00:00,
2013-05-02 16:05:00,59.8,44.1,30.39,East,88,1.0,7.0,56,0.00,BKN,,0.00,WeatherDisplay:10.37,2013-05-02 20:05:00,
2013-05-02 16:10:00,59.0,44.3,30.39,ENE,78,3.0,14.0,58,0.00,BKN,,0.00,WeatherDisplay:10.37,2013-05-02 20:10:00,
2013-05-02 16:15:00,58.2,43.4,30.39,East,98,2.0,18.0,58,0.00,BKN,,0.00,WeatherDisplay:10.37,2013-05-02 20:15:00,
2013-05-02 16:20:00,57.5,43.3,30.39,East,86,7.0,18.0,59,0.00,BKN,,0.00,WeatherDisplay:10.37,2013-05-02 20:20:00,
2013-05-02 16:25:00,57.0,43.7,30.39,East,83,3.0,8.0,61,0.00,BKN,,0.00,WeatherDisplay:10.37,2013-05-02 20:25:00,
2013-05-02 16:30:00,56.7,43.8,30.40,East,79,6.0,12.0,62,0.00,BKN,,0.00,WeatherDisplay:10.37,2013-05-02 20:30:00,
2013-05-02 16:35:00,56.1,43.7,30.40,East,100,2.0,12.0,63,0.00,BKN,,0.00,WeatherDisplay:10.37,2013-05-02 20:35:00,
2013-05-02 16:40:00,55.7,43.7,30.40,SE,127,1.0,5.0,64,0.00,BKN,,0.00,WeatherDisplay:10.37,2013-05-02 20:40:00,
2013-05-02 16:45:00,55.5,43.9,30.40,ESE,113,7.0,12.0,65,0.00,BKN,,0.00,WeatherDisplay:10.37,2013-05-02 20:45:00,
2013-05-02 16:50:00,55.2,43.7,30.40,East,95,5.0,9.0,65,0.00,BKN,,0.00,WeatherDisplay:10.37,2013-05-02 20:50:00,
2013-05-02 16:55:00,55.0,43.4,30.41,East,94,3.0,7.0,65,0.00,BKN,,0.00,WeatherDisplay:10.37,2013-05-02 20:55:00,
2013-05-02 17:00:00,54.8,43.7,30.41,East,90,1.0,7.0,66,0.00,BKN,,0.00,WeatherDisplay:10.37,2013-05-02 21:00:00,
2013-05-02 17:05:00,54.6,41.4,30.41,East,100,6.0,10.0,61,0.00,BKN,,0.00,WeatherDisplay:10.37,2013-05-02 21:05:00,
2013-05-02 17:10:00,54.2,39.8,30.41,ESE,107,3.0,12.0,58,0.00,BKN,,0.00,WeatherDisplay:10.37,2013-05-02 21:10:00,
2013-05-02 17:15:00,53.9,40.8,30.42,East,100,2.0,12.0,61,0.00,BKN,,0.00,WeatherDisplay:10.37,2013-05-02 21:15:00,
2013-05-02 17:20:00,53.7,40.5,30.42,East,84,6.0,12.0,61,0.00,BKN,,0.00,WeatherDisplay:10.37,2013-05-02 21:20:00,
2013-05-02 17:25:00,53.3,40.6,30.42,East,83,3.0,9.0,62,0.00,BKN,,0.00,WeatherDisplay:10.37,2013-05-02 21:25:00,
2013-05-02 17:30:00,53.1,41.2,30.42,East,84,2.0,8.0,64,0.00,BKN,,0.00,WeatherDisplay:10.37,2013-05-02 21:30:00,
2013-05-02 17:35:00,53.2,41.3,30.42,East,87,0.0,3.0,64,0.00,BKN,,0.00,WeatherDisplay:10.37,2013-05-02 21:35:00,
2013-05-02 17:40:00,53.3,41.0,30.42,NE,52,3.0,7.0,63,0.00,BKN,,0.00,WeatherDisplay:10.37,2013-05-02 21:40:00,
2013-05-02 17:45:00,53.4,39.9,30.43,NE,45,5.0,9.0,60,0.00,BKN,,0.00,WeatherDisplay:10.37,2013-05-02 21:45:00,
2013-05-02 17:50:00,53.3,38.4,30.43,ENE,68,1.0,10.0,57,0.00,BKN,,0.00,WeatherDisplay:10.37,2013-05-02 21:50:00,
2013-05-02 17:55:00,53.2,38.4,30.43,NE,56,0.0,5.0,57,0.00,BKN,,0.00,WeatherDisplay:10.37,2013-05-02 21:55:00,
2013-05-02 18:00:00,53.2,37.4,30.43,NE,48,2.0,7.0,55,0.00,BKN,,0.00,WeatherDisplay:10.37,2013-05-02 22:00:00,
2013-05-02 18:05:00,53.2,36.5,30.43,NE,52,3.0,9.0,53,0.00,OVC,,0.00,WeatherDisplay:10.37,2013-05-02 22:05:00,
2013-05-02 18:10:00,53.1,35.4,30.43,East,79,5.0,10.0,51,0.00,OVC,,0.00,WeatherDisplay:10.37,2013-05-02 22:10:00,
2013-05-02 18:15:00,52.9,35.2,30.44,East,86,1.0,9.0,51,0.00,OVC,,0.00,WeatherDisplay:10.37,2013-05-02 22:15:00,
2013-05-02 18:20:00,52.7,34.6,30.43,East,88,3.0,12.0,50,0.00,OVC,,0.00,WeatherDisplay:10.37,2013-05-02 22:20:00,
2013-05-02 18:25:00,52.6,34.9,30.43,East,95,3.0,9.0,51,0.00,OVC,,0.00,WeatherDisplay:10.37,2013-05-02 22:25:00,
2013-05-02 18:30:00,52.4,35.8,30.44,East,84,2.0,6.0,53,0.00,OVC,,0.00,WeatherDisplay:10.37,2013-05-02 22:30:00,
2013-05-02 18:35:00,52.4,35.8,30.44,East,93,2.0,5.0,53,0.00,OVC,,0.00,WeatherDisplay:10.37,2013-05-02 22:35:00,
2013-05-02 18:40:00,52.4,35.2,30.45,East,82,3.0,10.0,52,0.00,OVC,,0.00,WeatherDisplay:10.37,2013-05-02 22:40:00,
2013-05-02 18:45:00,52.2,34.6,30.45,ENE,74,3.0,12.0,51,0.00,OVC,,0.00,WeatherDisplay:10.37,2013-05-02 22:45:00,
2013-05-02 18:50:00,51.9,33.8,30.45,East,85,1.0,15.0,50,0.00,OVC,,0.00,WeatherDisplay:10.37,2013-05-02 22:50:00,
2013-05-02 18:55:00,51.6,34.0,30.45,ESE,107,2.0,9.0,51,0.00,OVC,,0.00,WeatherDisplay:10.37,2013-05-02 22:55:00,
2013-05-02 19:00:00,51.4,34.8,30.45,ESE,104,5.0,10.0,53,0.00,OVC,,0.00,WeatherDisplay:10.37,2013-05-02 23:00:00,
2013-05-02 19:05:00,51.2,35.2,30.46,ENE,72,2.0,9.0,54,0.00,BKN,,0.00,WeatherDisplay:10.37,2013-05-02 23:05:00,
2013-05-02 19:10:00,51.0,35.4,30.46,ENE,67,1.0,9.0,55,0.00,BKN,,0.00,WeatherDisplay:10.37,2013-05-02 23:10:00,
2013-05-02 19:15:00,50.9,35.7,30.46,ENE,59,5.0,7.0,56,0.00,BKN,,0.00,WeatherDisplay:10.37,2013-05-02 23:15:00,
2013-05-02 19:20:00,50.7,35.6,30.46,East,96,0.0,9.0,56,0.00,BKN,,0.00,WeatherDisplay:10.37,2013-05-02 23:20:00,
2013-05-02 19:25:00,50.6,35.9,30.46,ESE,117,0.0,3.0,57,0.00,BKN,,0.00,WeatherDisplay:10.37,2013-05-02 23:25:00,
2013-05-02 19:30:00,50.5,36.7,30.46,East,94,0.0,3.0,59,0.00,BKN,,0.00,WeatherDisplay:10.37,2013-05-02 23:30:00,
2013-05-02 19:35:00,50.4,36.2,30.46,ENE,62,1.0,4.0,58,0.00,BKN,,0.00,WeatherDisplay:10.37,2013-05-02 23:35:00,
2013-05-02 19:40:00,50.3,37.0,30.46,NE,43,1.0,3.0,60,0.00,BKN,,0.00,WeatherDisplay:10.37,2013-05-02 23:40:00,
2013-05-02 19:45:00,50.3,36.9,30.46,ENE,74,2.0,6.0,60,0.00,BKN,,0.00,WeatherDisplay:10.37,2013-05-02 23:45:00,
2013-05-02 19:50:00,50.2,36.8,30.46,NE,47,0.0,4.0,60,0.00,BKN,,0.00,WeatherDisplay:10.37,2013-05-02 23:50:00,
2013-05-02 19:55:00,50.1,36.7,30.47,ENE,71,0.0,2.0,60,0.00,BKN,,0.00,WeatherDisplay:10.37,2013-05-02 23:55:00,
2013-05-02 20:00:00,50.0,37.1,30.47,East,91,0.0,3.0,61,0.00,BKN,,0.00,WeatherDisplay:10.37,2013-05-03 00:00:00,
2013-05-02 20:05:00,50.0,36.7,30.47,East,100,2.0,7.0,60,0.00,OVC,,0.00,WeatherDisplay:10.37,2013-05-03 00:05:00,
2013-05-02 20:10:00,49.9,37.0,30.47,SE,137,0.0,3.0,61,0.00,OVC,,0.00,WeatherDisplay:10.37,2013-05-03 00:10:00,
2013-05-02 20:15:00,49.9,37.3,30.47,SE,128,1.0,4.0,62,0.00,OVC,,0.00,WeatherDisplay:10.37,2013-05-03 00:15:00,
2013-05-02 20:20:00,49.8,36.9,30.47,East,84,0.0,4.0,61,0.00,OVC,,0.00,WeatherDisplay:10.37,2013-05-03 00:20:00,
2013-05-02 20:25:00,49.8,37.3,30.47,East,99,0.0,2.0,62,0.00,OVC,,0.00,WeatherDisplay:10.37,2013-05-03 00:25:00,
2013-05-02 20:30:00,49.7,37.2,30.47,ESE,108,0.0,0.0,62,0.00,OVC,,0.00,WeatherDisplay:10.37,2013-05-03 00:30:00,
2013-05-02 20:35:00,49.7,37.2,30.47,ESE,114,0.0,0.0,62,0.00,OVC,,0.00,WeatherDisplay:10.37,2013-05-03 00:35:00,
2013-05-02 20:40:00,49.7,37.6,30.48,ESE,115,0.0,2.0,63,0.00,OVC,,0.00,WeatherDisplay:10.37,2013-05-03 00:40:00,
2013-05-02 20:45:00,49.7,38.0,30.48,East,79,0.0,0.0,64,0.00,OVC,,0.00,WeatherDisplay:10.37,2013-05-03 00:45:00,
2013-05-02 20:50:00,49.7,37.6,30.48,NE,55,0.0,0.0,63,0.00,OVC,,0.00,WeatherDisplay:10.37,2013-05-03 00:50:00,
2013-05-02 20:55:00,49.7,37.6,30.48,NE,55,0.0,0.0,63,0.00,OVC,,0.00,WeatherDisplay:10.37,2013-05-03 00:55:00,
2013-05-02 21:00:00,49.7,37.6,30.48,NE,55,0.0,0.0,63,0.00,OVC,,0.00,WeatherDisplay:10.37,2013-05-03 01:00:00,
2013-05-02 21:05:00,49.7,38.0,30.48,NE,55,0.0,0.0,64,0.00,OVC,,0.00,WeatherDisplay:10.37,2013-05-03 01:05:00,
2013-05-02 21:10:00,49.7,38.0,30.48,NE,55,0.0,0.0,64,0.00,OVC,,0.00,WeatherDisplay:10.37,2013-05-03 01:10:00,
2013-05-02 21:15:00,49.6,37.5,30.48,NE,55,0.0,0.0,63,0.00,OVC,,0.00,WeatherDisplay:10.37,2013-05-03 01:15:00,
2013-05-02 21:20:00,49.6,38.3,30.48,NE,55,0.0,0.0,65,0.00,-RA,,0.00,WeatherDisplay:10.37,2013-05-03 01:20:00,
2013-05-02 21:25:00,49.6,38.7,30.48,NE,55,0.0,0.0,66,0.00,-RA,,0.00,WeatherDisplay:10.37,2013-05-03 01:25:00,
2013-05-02 21:30:00,49.6,38.7,30.49,NE,55,0.0,0.0,66,0.00,-RA,,0.00,WeatherDisplay:10.37,2013-05-03 01:30:00,
2013-05-02 21:35:00,49.6,38.7,30.49,NE,55,0.0,0.0,66,0.00,-RA,,0.00,WeatherDisplay:10.37,2013-05-03 01:35:00,
2013-05-02 21:40:00,49.6,38.7,30.49,NE,55,0.0,0.0,66,0.00,-RA,,0.00,WeatherDisplay:10.37,2013-05-03 01:40:00,
2013-05-02 21:45:00,49.7,38.4,30.49,NE,55,0.0,0.0,65,0.00,-RA,,0.00,WeatherDisplay:10.37,2013-05-03 01:45:00,
2013-05-02 21:50:00,49.7,38.8,30.49,NE,55,0.0,0.0,66,0.00,-RA,,0.00,WeatherDisplay:10.37,2013-05-03 01:50:00,
2013-05-02 21:55:00,49.7,38.4,30.49,NE,55,0.0,0.0,65,0.00,-RA,,0.00,WeatherDisplay:10.37,2013-05-03 01:55:00,
2013-05-02 22:00:00,49.7,38.4,30.49,NE,55,0.0,0.0,65,0.00,-RA,,0.00,WeatherDisplay:10.37,2013-05-03 02:00:00,
2013-05-02 22:05:00,49.7,38.8,30.49,NE,46,0.0,0.0,66,0.00,-RA,,0.00,WeatherDisplay:10.37,2013-05-03 02:05:00,
2013-05-02 22:10:00,49.6,38.3,30.49,NE,35,0.0,0.0,65,0.00,-RA,,0.00,WeatherDisplay:10.37,2013-05-03 02:10:00,
2013-05-02 22:15:00,49.4,38.1,30.49,NNE,32,0.0,0.0,65,0.00,-RA,,0.00,WeatherDisplay:10.37,2013-05-03 02:15:00,
2013-05-02 22:25:00,48.9,38.4,30.49,NNE,32,0.0,0.0,67,0.00,OVC,,0.00,WeatherDisplay:10.37,2013-05-03 02:25:00,
2013-05-02 22:30:00,48.7,38.6,30.49,NNE,32,0.0,0.0,68,0.00,OVC,,0.00,WeatherDisplay:10.37,2013-05-03 02:30:00,
2013-05-02 22:35:00,48.4,38.7,30.49,NNE,32,0.0,0.0,69,0.00,OVC,,0.00,WeatherDisplay:10.37,2013-05-03 02:35:00,
2013-05-02 22:40:00,48.1,38.4,30.49,NNE,32,0.0,0.0,69,0.00,OVC,,0.00,WeatherDisplay:10.37,2013-05-03 02:40:00,
2013-05-02 22:45:00,47.7,38.4,30.49,NNE,32,0.0,0.0,70,0.00,OVC,,0.00,WeatherDisplay:10.37,2013-05-03 02:45:00,
2013-05-02 22:50:00,47.3,38.4,30.49,NNE,32,0.0,0.0,71,0.00,OVC,,0.00,WeatherDisplay:10.37,2013-05-03 02:50:00,
2013-05-02 22:55:00,47.0,38.4,30.49,NNE,32,0.0,0.0,72,0.00,OVC,,0.00,WeatherDisplay:10.37,2013-05-03 02:55:00,
2013-05-02 23:00:00,46.7,38.5,30.49,NNE,32,0.0,0.0,73,0.00,OVC,,0.00,WeatherDisplay:10.37,2013-05-03 03:00:00,
2013-05-02 23:05:00,46.3,38.1,30.49,NNE,32,0.0,0.0,73,0.00,CLR,,0.00,WeatherDisplay:10.37,2013-05-03 03:05:00,
2013-05-02 23:10:00,46.0,38.5,30.49,NNE,32,0.0,0.0,75,0.00,CLR,,0.00,WeatherDisplay:10.37,2013-05-03 03:10:00,
2013-05-02 23:15:00,45.7,38.2,30.49,NNE,32,0.0,0.0,75,0.00,CLR,,0.00,WeatherDisplay:10.37,2013-05-03 03:15:00,
2013-05-02 23:20:00,45.3,38.5,30.49,NNE,32,0.0,0.0,77,0.00,CLR,,0.00,WeatherDisplay:10.37,2013-05-03 03:20:00,
2013-05-02 23:25:00,45.0,38.2,30.49,NNE,32,0.0,0.0,77,0.00,CLR,,0.00,WeatherDisplay:10.37,2013-05-03 03:25:00,
2013-05-02 23:30:00,44.7,38.2,30.49,NNE,32,0.0,0.0,78,0.00,CLR,,0.00,WeatherDisplay:10.37,2013-05-03 03:30:00,
2013-05-02 23:35:00,44.3,37.9,30.49,NNE,32,0.0,0.0,78,0.00,CLR,,0.00,WeatherDisplay:10.37,2013-05-03 03:35:00,
2013-05-02 23:40:00,44.0,38.2,30.49,NNE,32,0.0,0.0,80,0.00,CLR,,0.00,WeatherDisplay:10.37,2013-05-03 03:40:00,
2013-05-02 23:45:00,43.7,37.9,30.49,NNE,32,0.0,0.0,80,0.00,CLR,,0.00,WeatherDisplay:10.37,2013-05-03 03:45:00,
2013-05-02 23:50:00,43.4,38.0,30.49,NNE,32,0.0,0.0,81,0.00,CLR,,0.00,WeatherDisplay:10.37,2013-05-03 03:50:00,
2013-05-02 23:55:00,43.1,37.7,30.49,NNE,32,0.0,0.0,81,0.00,CLR,,0.00,WeatherDisplay:10.37,2013-05-03 03:55:00,